Starlink 1465

operational
NORAD ID: 45731 Int'l Des: 2020-038 Owner: SPXS Country: US Constellation: starlink
LEOCIRCULARSTARLINK_TYPE

Über Starlink 1465

Beschreibung wird geladen...

Live-Position

3D-Globus wird geladen...

Nächste Überflüge

Höhenverlauf

Altitude vs Time

uPlot chart will show altitude changes over time

Zweizeiliger Elementsatz

1 45731U 20038B 25257.43135926 .00006201 00000-0 43464-3 0 9990
2 45731 53.0544 307.8740 0001362 80.9502 279.1641 15.06417896289622
Epoch: 14. Sept. 2025 • Age: 23 hours

Aktueller Status

Höhe 547.4 km
Geschwindigkeit 7.59 km/s
Subsatellitenpunkt 22.38°N, 28.68°W
Startdatum 13. Juni 2020
Alter 5.2 years
Typ internet

Technische Details

Klassifizierung Payload
Masse 260.00 kg
Trockenmasse 248.00 kg
Gesamtmasse 260.00 kg
Länge 0.20 m
Durchmesser 2.80 m
Spannweite 9.00 m
Form Box + pan
Hersteller SPXS
Bus-Typ Starlink
Phasenstatus In Orbit
Besitzer/Staat SPXS/US

Große Konstellationen

Loading constellations...